EW8320 Weather Reports


Display with metric or nautical units.
time (UTC)temp
F
wind
direction
speed
MPH
gust
MPH
rain 1hr
in
rain 24hr
in
rain mn
in
humidity
%
barometer
mb
20260509020014 60 89 0.0 0.0 0.00 0.00 0.00 30 1020.6
20260509015015 61 68 0.0 0.0 0.00 0.00 0.00 29 1020.7
20260509014017 61 91 0.0 0.0 0.00 0.00 0.00 29 1020.4
20260509013114 62 89 0.0 0.0 0.00 0.00 0.00 28 1020.5
20260509011114 64 99 0.0 0.0 0.00 0.00 0.00 28 1020.1
20260509010131 64 82 0.0 0.0 0.00 0.00 0.00 29 1020.0
20260509005115 65 101 0.0 0.0 0.00 0.00 0.00 33 1020.1
20260509004214 65 105 0.0 0.0 0.00 0.00 0.00 34 1020.0
20260509003216 64 81 0.0 0.0 0.00 0.00 0.00 36 1019.8
20260509002314 64 81 0.0 0.0 0.00 0.00 0.00 35 1020.0
20260509001315 64 71 0.0 0.0 0.00 0.00 0.00 36 1020.1
20260509000318 64 73 0.0 0.0 0.00 0.00 0.00 36 1020.2
20260508235315 65 93 0.0 0.0 0.00 0.00 0.00 37 1019.9
20260508232318 65 82 0.0 0.0 0.00 0.00 0.00 33 1020.4
20260508230414 65 104 0.0 0.0 0.00 0.00 0.00 32 1020.4
20260508225415 64 93 0.0 0.0 0.00 0.00 0.00 35 1020.3
20260508224416 63 93 0.0 0.0 0.00 0.00 0.00 34 1020.4
20260508223416 63 93 0.0 0.0 0.00 0.00 0.00 35 1020.4
20260508222415 63 112 0.0 0.0 0.00 0.00 0.00 33 1020.3
20260508221515 63 101 0.0 0.0 0.00 0.00 0.00 34 1020.1
20260508220515 64 93 0.0 0.0 0.00 0.00 0.00 32 1020.0
20260508214615 65 104 0.0 0.0 0.00 0.00 0.00 32 1020.0
20260508213616 65 96 0.0 0.0 0.00 0.00 0.00 31 1019.9
20260508212715 66 109 0.0 0.0 0.00 0.00 0.00 33 1020.0
20260508211716 65 81 0.0 0.0 0.00 0.00 0.00 33 1019.9
20260508210714 66 92 0.0 0.0 0.00 0.00 0.00 33 1019.7
20260508205716 65 73 2.0 17.0 0.00 0.00 0.00 32 1020.0
20260508204716 65 78 0.0 0.0 0.00 0.00 0.00 31 1020.0
20260508203716 65 88 0.0 0.0 0.00 0.00 0.00 30 1020.0
20260508202718 66 84 0.0 0.0 0.00 0.00 0.00 30 1020.0
20260508201815 65 78 0.0 0.0 0.00 0.00 0.00 32 1020.0
20260508200814 61 87 0.0 0.0 0.00 0.00 0.00 33 1020.2
20260508195815 61 114 0.0 0.0 0.00 0.00 0.00 32 1020.4
20260508194815 59 104 0.0 0.0 0.00 0.00 0.00 35 1020.6
20260508193816 59 94 0.0 0.0 0.00 0.00 0.00 37 1020.7
20260508192816 59 111 0.0 0.0 0.00 0.00 0.00 39 1020.7
20260508191716 59 84 0.0 0.0 0.00 0.00 0.00 39 1020.7
20260508190716 58 174 0.0 0.0 0.00 0.00 0.00 40 1020.9
20260508185732 58 93 0.0 0.0 0.00 0.00 0.00 39 1020.7
20260508183815 58 98 0.0 0.0 0.00 0.00 0.00 39 1021.1
20260508182817 57 100 0.0 0.0 0.00 0.00 0.00 38 1021.2
20260508182715 57 95 0.0 0.0 0.00 0.00 0.00 38 1021.1
20260508181714 57 87 0.0 0.0 0.00 0.00 0.00 39 1021.2
20260508180715 56 103 0.0 0.0 0.00 0.00 0.00 41 1021.0
20260508175716 55 60 0.0 0.0 0.00 0.00 0.00 43 1021.2
20260508173715 55 80 0.0 0.0 0.00 0.00 0.00 41 1021.1
20260508172714 54 38 0.0 0.0 0.00 0.00 0.00 41 1021.3
20260508165714 53 90 0.0 0.0 0.00 0.00 0.00 45 1020.9
20260508164715 54 73 0.0 0.0 0.00 0.00 0.00 48 1020.9
20260508163732 53 100 0.0 0.0 0.00 0.00 0.00 47 1021.0
20260508162814 53 112 0.0 0.0 0.00 0.00 0.00 46 1021.0
20260508161815 52 117 0.0 0.0 0.00 0.00 0.00 46 1020.8
20260508160815 51 112 0.0 0.0 0.00 0.00 0.00 48 1020.9
20260508155814 50 180 0.0 0.0 0.00 0.00 0.00 49 1021.0
20260508154816 58 197 0.0 0.0 0.00 0.00 0.00 100 1020.9
20260508153915 55 202 0.0 0.0 0.00 0.00 0.00 100 1021.0
20260508152915 53 209 0.0 0.0 0.00 0.00 0.00 100 1021.0
20260508151914 56 225 0.0 0.0 0.00 0.00 0.00 100 1021.1
20260508150914 55 191 0.0 0.0 0.00 0.00 0.00 100 1021.2
20260508145917 52 90 0.0 0.0 0.00 0.00 0.00 100 1021.1
20260508145014 50 90 0.0 0.0 0.00 0.00 0.00 100 1021.2
20260508144917 51 90 0.0 0.0 0.00 0.00 0.00 100 1021.1
20260508143915 51 109 0.0 0.0 0.00 0.00 0.00 100 1021.1
20260508143813 52 135 0.0 0.0 0.00 0.00 0.00 100 1021.1
20260508142817 52 173 0.0 0.0 0.00 0.00 0.00 100 1021.1
20260508135815 45 248 0.0 0.0 0.00 0.00 0.00 100 1020.6
20260508134816 45 259 0.0 0.0 0.00 0.00 0.00 100 1020.5
20260508133814 48 250 0.0 0.0 0.00 0.00 0.00 100 1020.4
20260508132816 45 255 0.0 0.0 0.00 0.00 0.00 100 1020.0
20260508131815 41 265 0.0 0.0 0.00 0.00 0.00 100 1019.9
20260508130814 40 263 0.0 0.0 0.00 0.00 0.00 100 1019.7
20260508125816 41 243 0.0 0.0 0.00 0.00 0.00 100 1019.8
20260508124815 42 261 0.0 0.0 0.00 0.00 0.00 100 1019.7
20260508123814 43 271 0.0 0.0 0.00 0.00 0.00 100 1019.7
20260508122813 45 255 0.0 0.0 0.00 0.00 0.00 100 1019.7
20260508121855 44 259 0.0 0.0 0.00 0.00 0.00 100 1019.7
20260508115917 43 280 0.0 0.0 0.00 0.00 0.00 100 1019.7
20260508114917 44 272 0.0 0.0 0.00 0.00 0.00 100 1019.7
20260508113916 47 265 0.0 0.0 0.00 0.00 0.00 100 1019.5
20260508112916 47 288 0.0 0.0 0.00 0.00 0.00 100 1019.5
20260508111915 47 251 0.0 0.0 0.00 0.00 0.00 100 1019.5
20260508111817 47 260 0.0 0.0 0.00 0.00 0.00 100 1019.5
20260508110915 42 260 0.0 0.0 0.00 0.00 0.00 100 1019.5
20260508105916 41 272 0.0 0.0 0.00 0.00 0.00 100 1019.4
20260508104915 36 259 0.0 0.0 0.00 0.00 0.00 100 1019.3
20260508104014 33 256 0.0 0.0 0.00 0.00 0.00 81 1019.3
20260508103016 34 292 0.0 0.0 0.00 0.00 0.00 80 1019.5
20260508102015 34 255 0.0 0.0 0.00 0.00 0.00 78 1019.5
20260508101032 40 276 0.0 0.0 0.00 0.00 0.00 69 1019.7
20260508100126 43 283 0.0 0.0 0.00 0.00 0.00 66 1019.5
20260508071716 43 275 0.0 0.0 0.00 0.00 0.00 65 1019.7
20260508065720 44 268 0.0 0.0 0.00 0.00 0.00 63 1019.7
20260508064818 44 281 0.0 0.0 0.00 0.00 0.00 63 1019.5
20260508064720 44 277 0.0 0.0 0.00 0.00 0.00 63 1019.5
20260508063720 45 233 0.0 0.0 0.00 0.00 0.00 60 1019.5
20260508062720 46 273 0.0 0.0 0.00 0.00 0.00 60 1019.5
20260508061818 46 268 0.0 0.0 0.00 0.00 0.00 59 1019.5
20260508060822 46 244 0.0 0.0 0.00 0.00 0.00 57 1019.5
20260508054819 48 254 0.0 0.0 0.00 0.00 0.00 54 1019.5
20260508053822 48 262 0.0 0.0 0.00 0.00 0.00 54 1019.4
20260508052920 48 239 0.0 0.0 0.00 0.00 0.00 55 1019.6
20260508051920 48 243 0.0 0.0 0.00 0.00 0.00 55 1019.6
20260508050919 47 270 0.0 0.0 0.00 0.00 0.00 56 1019.6
20260508044919 53 266 0.0 0.0 0.00 0.00 0.00 93 1019.4
20260508043921 56 225 0.0 0.0 0.00 0.00 0.00 100 1019.4
20260508042920 57 292 0.0 0.0 0.00 0.00 0.00 100 1019.6
20260508041920 54 315 0.0 0.0 0.00 0.00 0.00 100 1019.5
20260508040921 47 315 0.0 0.0 0.00 0.00 0.00 59 1019.5
20260508040020 48 315 0.0 0.0 0.00 0.00 0.00 55 1019.4
20260508035021 49 315 0.0 0.0 0.00 0.00 0.00 54 1019.3
20260508034022 49 315 0.0 0.0 0.00 0.00 0.00 53 1019.3
20260508033121 50 315 0.0 0.0 0.00 0.00 0.00 51 1019.2
20260508032119 51 315 0.0 0.0 0.00 0.00 0.00 48 1019.2
20260508031119 53 315 0.0 0.0 0.00 0.00 0.00 43 1019.0
20260508030127 54 356 0.0 0.0 0.00 0.00 0.00 42 1018.9
20260508024319 56 22 0.0 0.0 0.00 0.00 0.00 40 1018.7
20260508023320 57 22 0.0 0.0 0.00 0.00 0.00 37 1018.6
20260508022419 58 321 0.0 0.0 0.00 0.00 0.00 37 1018.5